{"data":{"norad_id":68461,"epoch":"2026-09-19T07:39:36.582624Z","epoch_age_seconds":170848,"freshness":"FRESH","line1":"1 68461U 26067AX  26262.31917341  .00004645  00000+0  22427-3 0  9991","line2":"2 68461  97.4648 219.4956 0006116  92.9168 267.2767 15.19133330 26228","mean_motion":15.1913333,"eccentricity":0.0006116,"inclination_deg":97.4648,"raan_deg":219.4956,"arg_perigee_deg":92.9168,"mean_anomaly_deg":267.2767,"bstar":0.00022427,"rev_number":2622,"period_min":94.790889750276,"perigee_km":504.24674254669,"apogee_km":512.67042626553,"semimajor_km":6886.5955844061,"source":"CELESTRAK","updated_at":"2026-09-20T09:00:24.212069Z"}}